Weather History for CYYF - August, 2013

Change the Weather History Date:

Tuesday, August 6, 2013

  Actual Average Record
Temperature  
Mean Temperature 72 °F -  
Max Temperature 93 °F 80 °F 95 °F (2005)
Min Temperature 52 °F 52 °F 51 °F (2006)
Cooling Degree Days 8    
Growing Degree Days 22 (Base 50)    
Moisture  
Dew Point 52 °F    
Average Humidity 48    
Maximum Humidity 82    
Minimum Humidity 20    
Precipitation  
Precipitation 0.00 in 0.04 in - ()
Sea Level Pressure  
Sea Level Pressure 29.88 in    
Wind  
Wind Speed 4 mph ()    
Max Wind Speed 16 mph    
Max Gust Speed -    
Visibility 15.0 miles    
Events      
Averages and records for this station are not official NWS values.
T = Trace of Precipitation, MM = Missing Value Source: Averaged Metar Reports

Daily Weather History Graph

Daily Weather History Graph

Search for Another Location

Airport or City:

Trip Planner

Search our weather history database for the weather conditions in past years. The results will help you decide how hot, cold, wet, or windy it might be!

Date:

Astronomy

Aug. 06, 2013 Rise Set
Actual Time 5:37 AM PDT 8:30 PM PDT
Civil Twilight 5:00 AM PDT 9:07 PM PDT
Nautical Twilight 4:12 AM PDT 9:54 PM PDT
Astronomical Twilight 3:13 AM PDT 10:52 PM PDT
Moon 5:39 AM PDT (8/6) 7:58 PM PDT (8/6)
Length of Visible Light 16h 07m
Length of Day
14h 53m
Waning Crescent, 0% of the Moon is Illuminated
Aug 6
Waning Crescent
Aug 6
New
Aug 14
First Quarter
Aug 20
Full
Aug 28
Last Quarter

Hourly Weather History & Observations

Time (PDT) Temp. Heat Index Dew Point Humidity Pressure Visibility Wind Dir Wind Speed Gust Speed Precip Events Conditions
12:00 AM 64.4 °F - 57.2 °F 77% 29.91 in 15.0 mi Variable 2.3 mph - N/A   Partly Cloudy
1:00 AM 60.8 °F - 55.4 °F 82% 29.92 in 15.0 mi NNE 3.5 mph - N/A   Partly Cloudy
2:00 AM 60.8 °F - 53.6 °F 77% 29.92 in 15.0 mi East 3.5 mph - N/A   Partly Cloudy
3:00 AM 59.0 °F - 53.6 °F 82% 29.93 in 15.0 mi Variable 2.3 mph - N/A   Partly Cloudy
4:00 AM 57.2 °F - 51.8 °F 82% 29.93 in 15.0 mi NNE 2.3 mph - N/A   Clear
5:00 AM 57 °F - 51 °F 74% 29.94 in 15 mi NE 1.2 mph - -   Scattered Clouds
5:00 AM 57.2 °F - 50.0 °F 77% 29.94 in 15.0 mi Variable 2.3 mph - N/A   Partly Cloudy
6:00 AM 55.4 °F - 48.2 °F 77% 29.96 in 15.0 mi NNW 2.3 mph - N/A   Partly Cloudy
7:00 AM 59.0 °F - 53.6 °F 82% 29.97 in 15.0 mi Variable 2.3 mph - N/A   Partly Cloudy
8:00 AM 68.0 °F - 53.6 °F 60% 29.97 in 15.0 mi NNE 2.3 mph - N/A   Partly Cloudy
9:00 AM 73.4 °F - 51.8 °F 47% 29.96 in 15.0 mi NNE 4.6 mph - N/A   Partly Cloudy
10:00 AM 75.2 °F - 50.0 °F 41% 29.95 in 15.0 mi Calm Calm - N/A   Partly Cloudy
11:00 AM 79 °F - 54 °F 32% 29.93 in 15 mi SSE 2.3 mph - -   Scattered Clouds
11:00 AM 78.8 °F - 53.6 °F 42% 29.93 in 15.0 mi SSE 3.5 mph - N/A   Partly Cloudy
12:00 PM 82.4 °F - 51.8 °F 35% 29.91 in 15.0 mi Calm Calm - N/A   Partly Cloudy
1:00 PM 86.0 °F 84.9 °F 57.2 °F 37% 29.88 in 15.0 mi NE 4.6 mph - N/A   Partly Cloudy
2:00 PM 86.0 °F 84.2 °F 53.6 °F 33% 29.86 in 15.0 mi North 9.2 mph - N/A   Partly Cloudy
3:00 PM 93.2 °F 90.8 °F 53.6 °F 26% 29.82 in 15.0 mi South 11.5 mph - N/A   Partly Cloudy
4:00 PM 91.4 °F 89.1 °F 53.6 °F 28% 29.80 in 15.0 mi SSE 8.1 mph - N/A   Scattered Clouds
5:00 PM 92 °F - 55 °F 20% 29.79 in 15 mi SSE 10.4 mph - -   Scattered Clouds
5:00 PM 93.2 °F 91.3 °F 55.4 °F 28% 29.79 in 15.0 mi SSE 10.4 mph - N/A   Scattered Clouds
6:00 PM 91.4 °F 89.4 °F 55.4 °F 29% 29.79 in 15.0 mi South 10.4 mph - N/A   Scattered Clouds
7:00 PM 87.8 °F 85.7 °F 53.6 °F 31% 29.78 in 15.0 mi South 9.2 mph - N/A   Partly Cloudy
8:00 PM 82.4 °F 81.4 °F 53.6 °F 37% 29.79 in 15.0 mi NNE 8.1 mph - N/A   Scattered Clouds
9:00 PM 84.2 °F - 42.8 °F 23% 29.81 in 15.0 mi North 16.1 mph - N/A   Scattered Clouds
10:00 PM 80.6 °F - 41.0 °F 24% 29.84 in 15.0 mi North 8.1 mph - N/A   Partly Cloudy
11:00 PM 69 °F - 44 °F 29% 29.87 in 15 mi NNW 4.6 mph - -   Clear
11:00 PM 68.0 °F - 44.6 °F 43% 29.87 in 15.0 mi WNW 4.6 mph - N/A   Partly Cloudy